FENGYUN 1C DEB, 32459

Orbit data source: Space-Track

FENGYUN 1C DEB, 32459 is space debris in SSO originally from a launch on Mon, 10 May 1999 UTC launched from the Taiyaun Space Center, China (TSC). Fengyun 1C debris stems from the Chinese weather satellite Fengyun-1C, which was intentionally destroyed by a Chinese anti-satellite missile in 2007. This event dramatically increased the amount of space debris, with thousands of trackable fragments posing hazards to satellites and human spaceflight. The Fengyun 1C debris cloud has become a focal point in discussions about space sustainability and the need for international regulations to prevent the creation of new debris.

Loading next visibility...
Identifier
32459, 1999-025DBX
Orbit
SSO
Country
Flag of CNCN / PRC
Related business
Manufacturer
Unknown
Mission
Spacecraft
Bus & Motor
Unknown
Mass
Unknown
Launch date (UTC)
1999-05-10 (26 years ago)
Launch vehicle
Unknown
Launch site
Taiyaun Space Center, China (TSC)
Object type
Payload
Rocket body
Debris
Shape & HBR
Unknown shape, 0.1 m
Radar Cross Section
Small (<0.1 m²)

Expand to show TLE details & history
Last TLE update: 1 week ago

TLE from 1 week ago
0 FENGYUN 1C DEB
1 32459U 99025DBX 25296.85184827  .00004023  00000-0  93499-3 0  9991
2 32459  98.3059 312.3398 0213800 337.9744  21.2361 14.42421689938319
Epoch: 2025-10-23T20:26Z
TLE epoch observation values (Epoch: 2025-10-23T20:26:39.690Z)
Latitude
0.00003°
Longitude
-26.83074°
Altitude
611.819 km
Speed
7.628 km/s
True Right ascension
20h 49m 21s
True Declination
0° 00' 00"
Sunlit
Object was in daylight at epoch
Visualization orbit readout
Latitude
Unknown
Longitude
Unknown
Altitude
Unknown
Speed
Unknown
Apparent Right ascension
Unknown
Apparent Declination
Unknown
Sunlit
N/A
Visualization observer readout
Local Sidereal Time
04:22:22
Azimuth
Unknown
Elevation
Unknown
Doppler factor
Unknown
Orbital elements
Apogee altitude
899.965 km
Perigee altitude
595.267 km
Semi-major axis
7,125.753 km
Eccentricity
0.02138
Inclination
98.3059°
RAAN
312.3398°
Arg. of periapsis
337.9744°
True anomaly
22.14612°
Mean anomaly
21.2361°
Eccentric anomaly
21.68881°
Mean motion
3.60825 °/min
Orbital period
99.77 mins
BSTAR
0.00093499
Loading maneuver chart data...
Computing Atmospheric mass density...
Loading historical data...
Loading historical data...
Loading historical data...
Loading historical data...
Loading historical data...
Loading historical data...
Loading historical data...

Documentation

Showing up to 5 results
|